Lapse_Rate
6.1 6.1 6.0 6.0 6.0 6.0 6.0 5.9 5.9 6.0 6.0 6.0 5.9 5.8 5.8 5.9 6.2 6.2 6.2 6.7 6.5 6.8 6.8 6.9 6.6 6.4 6.2 6.6 7.1 7.3 7.3 6.9 6.6 6.7 7.2 6.8 7.0 7.4 7.2 7.3 7.1 7.2 7.3 7.3 6.9
6.0 6.0 6.0 6.0 6.0 6.0 6.1 6.0 5.9 5.9 6.1 6.1 6.0 5.9 5.9 5.9 6.2 6.3 6.5 6.8 7.0 6.6 6.8 6.5 6.6 6.5 6.6 6.7 7.3 7.3 7.5 7.1 7.0 7.1 7.4 7.1 7.4 7.6 7.5 7.4 7.5 7.3 7.2 7.3 7.3
6.0 6.0 6.0 6.0 6.0 6.2 6.1 6.1 6.0 6.0 6.1 6.2 6.1 6.0 5.9 5.9 6.1 6.5 6.4 6.9 7.0 6.9 6.9 6.8 6.7 7.2 7.2 7.0 7.0 7.3 7.4 7.3 7.0 6.8 7.0 7.0 7.4 7.6 7.5 7.3 7.1 7.3 7.8 7.7 7.6
6.2 6.1 6.1 6.2 6.1 6.2 6.2 6.1 6.1 6.0 6.1 6.3 6.3 6.2 6.0 6.0 6.1 6.5 6.7 6.8 7.1 7.2 7.1 7.1 6.9 7.1 7.1 7.3 7.5 7.3 7.5 7.6 7.2 6.5 6.9 7.0 7.3 7.5 7.0 7.1 7.5 6.7 7.5 7.6 7.5
6.1 6.2 6.2 6.3 6.3 6.2 6.2 6.3 6.1 6.1 6.2 6.4 6.5 6.4 6.1 6.1 6.2 6.5 6.7 6.7 6.9 7.1 6.8 6.9 7.3 7.1 7.0 7.3 7.5 7.4 7.4 7.3 7.0 7.3 7.2 7.0 6.8 7.0 6.6 6.8 7.4 7.2 7.0 7.2 7.2
6.0 6.0 6.1 6.2 6.3 6.2 6.2 6.3 6.2 6.2 6.2 6.4 6.6 6.7 6.3 6.2 6.3 6.5 6.7 6.9 7.2 7.2 7.0 7.2 7.4 6.9 6.9 7.2 7.0 6.9 7.4 7.0 6.9 7.1 7.0 7.0 6.8 6.6 6.5 6.7 6.9 7.1 7.1 6.9 7.0
5.9 6.0 6.0 6.0 6.2 6.2 6.2 6.3 6.4 6.3 6.3 6.5 6.6 6.9 6.6 6.3 6.4 6.5 6.7 7.0 7.3 7.4 7.3 7.4 7.6 7.5 7.5 7.3 7.6 7.4 7.1 6.8 6.7 7.0 7.3 7.2 7.0 6.7 6.6 6.6 6.3 6.5 6.7 6.7 6.5
5.9 6.1 6.2 6.2 6.1 6.2 6.3 6.3 6.4 6.4 6.4 6.4 6.7 6.9 6.8 6.8 6.7 6.7 6.7 7.1 7.3 7.3 7.4 7.3 7.5 7.5 7.5 7.5 7.7 7.7 7.0 6.1 6.2 7.4 7.2 7.2 7.0 6.9 6.6 6.4 6.4 6.1 6.3 6.3 6.6
5.7 6.0 6.1 6.3 6.2 6.3 6.3 6.3 6.4 6.4 6.4 6.5 6.7 6.8 7.2 7.3 6.8 6.9 6.8 6.9 7.2 7.3 7.4 7.3 7.5 7.7 7.8 7.8 7.5 7.5 6.8 6.1 7.0 7.4 7.3 7.0 7.2 6.7 6.5 6.3 6.2 6.4 6.2 6.2 5.9
5.8 6.0 6.1 6.2 6.2 6.2 6.2 6.3 6.4 6.6 6.7 6.8 6.9 6.9 7.4 7.5 6.9 7.0 7.0 7.0 7.3 7.2 7.3 7.7 7.6 8.0 8.1 7.9 8.0 8.1 7.4 7.5 7.6 7.3 7.2 7.5 7.4 7.0 6.7 6.4 6.2 6.5 6.4 6.7 6.4
6.4 6.4 6.5 6.4 6.4 6.3 6.4 6.4 6.5 6.7 6.8 6.9 7.3 7.0 7.3 7.4 7.2 7.3 7.1 7.2 7.3 7.1 7.2 7.8 8.0 8.2 8.3 8.4 8.5 8.2 8.0 7.9 7.8 7.1 6.8 7.4 7.4 7.7 7.2 6.9 6.5 6.3 6.4 6.5 6.5
7.0 6.8 6.7 6.7 6.6 6.6 6.5 6.4 6.6 6.8 6.9 7.1 7.4 7.2 7.5 7.5 7.7 7.6 7.0 7.1 7.4 7.3 7.7 8.0 8.4 8.5 8.5 8.6 8.4 8.2 8.1 7.9 7.7 7.0 7.0 6.6 6.6 6.8 7.2 7.6 7.0 6.4 6.2 6.4 6.4
7.0 6.9 6.9 6.9 6.8 6.7 6.6 6.6 7.1 7.1 7.1 7.4 7.5 7.4 7.3 7.8 7.7 8.0 7.6 7.1 7.6 7.2 7.9 8.1 8.7 8.7 8.6 8.9 8.7 8.8 8.9 8.6 8.2 7.6 7.3 6.7 6.5 6.4 6.9 6.8 7.4 7.4 6.6 6.2 6.3
6.9 6.9 6.9 6.9 6.9 6.9 6.8 6.9 7.1 7.3 7.3 7.7 7.7 7.8 7.8 7.8 7.6 7.5 7.5 7.3 7.4 7.5 8.0 8.0 8.5 8.6 8.9 9.0 9.0 9.2 9.3 8.9 8.5 8.0 7.7 7.7 7.4 6.9 7.0 7.4 6.7 6.8 6.6 6.4 6.0
7.0 7.0 7.0 6.9 7.1 7.2 7.3 7.6 7.8 7.8 7.4 8.4 8.1 7.9 7.8 7.9 8.0 7.7 7.4 7.4 7.6 7.8 7.8 8.4 8.7 8.9 9.2 9.3 9.2 8.9 9.2 9.1 8.6 8.0 7.6 7.6 7.6 7.2 7.2 7.5 7.4 7.2 7.3 7.0 6.4
7.1 7.1 7.2 7.4 7.6 8.0 8.2 8.3 8.1 8.2 8.5 8.7 8.2 8.0 7.9 8.0 8.0 7.8 7.5 7.5 7.6 7.8 8.0 8.8 8.5 8.5 9.1 8.7 9.2 8.6 8.9 8.6 7.8 7.3 7.2 7.4 7.1 6.8 6.9 7.3 7.5 7.7 7.4 7.3 6.9
7.4 7.7 7.8 8.1 8.6 8.6 8.4 8.3 8.3 8.6 8.8 8.9 8.5 8.3 8.4 8.4 8.2 8.0 7.7 7.7 7.7 8.1 8.4 8.8 9.0 8.9 8.9 8.8 9.1 9.0 9.1 8.2 6.8 6.3 6.3 7.1 7.2 7.0 6.8 7.1 7.5 8.0 7.9 7.7 7.4
7.8 7.9 8.0 8.4 8.4 8.4 8.3 8.4 8.7 8.8 8.6 8.7 8.7 8.7 8.8 8.5 8.4 8.2 8.2 8.1 8.2 8.6 8.9 8.9 9.3 9.2 9.2 9.0 8.9 9.0 9.2 8.9 7.9 6.0 6.6 6.9 6.6 6.9 7.4 7.2 7.0 8.0 7.8 8.4 7.9
7.8 8.0 8.2 8.4 8.6 8.6 8.6 8.6 8.8 8.9 8.9 8.6 8.6 8.8 8.9 8.8 8.4 8.5 8.4 8.6 8.8 8.8 8.8 8.8 8.9 9.1 9.6 9.1 8.8 8.7 9.0 9.1 8.1 6.9 7.0 6.6 7.1 7.7 7.9 7.5 7.6 7.1 7.6 8.1 7.3
8.0 8.2 8.3 8.4 8.8 8.9 8.8 8.7 9.0 9.1 9.2 9.2 9.3 9.1 9.0 9.1 8.9 8.7 8.6 8.9 8.9 8.9 8.9 8.8 8.9 9.2 9.2 9.0 9.0 9.1 9.1 9.0 8.7 6.2 5.9 6.6 7.0 7.8 8.2 8.2 6.9 7.2 7.8 7.9 7.8
8.1 8.2 8.0 8.5 8.6 8.8 9.1 8.8 8.6 9.2 9.1 9.1 9.0 8.9 8.8 9.2 9.3 9.1 9.1 9.3 9.1 9.0 9.0 8.9 8.8 9.4 9.3 9.3 9.3 9.1 9.1 8.9 8.9 8.1 6.0 5.5 7.2 8.1 8.4 8.1 7.6 6.7 6.4 6.8 7.3
8.2 8.2 8.0 8.4 8.0 8.5 8.9 8.5 8.4 8.8 9.0 8.8 9.0 9.0 8.9 8.9 9.0 9.1 9.1 9.3 9.1 8.9 9.0 9.0 9.1 9.1 9.3 9.1 9.0 9.2 9.2 9.1 9.2 7.7 7.7 7.5 7.6 7.9 7.8 7.5 8.0 7.7 7.4 7.3 7.6
8.1 8.1 8.1 8.3 8.3 8.2 8.2 8.3 8.2 8.7 9.0 8.9 8.6 8.8 9.0 9.0 8.9 9.0 9.1 8.9 9.0 9.1 8.9 9.0 8.8 8.9 9.2 9.1 9.0 8.9 9.3 9.5 9.2 8.6 8.3 7.7 7.7 8.1 8.1 7.9 7.9 8.0 7.7 7.7 7.8
7.9 8.0 8.1 8.3 7.9 8.1 8.1 8.0 8.2 8.4 8.4 8.4 8.5 8.6 8.9 8.9 9.0 8.9 8.8 8.6 8.7 8.7 8.8 8.7 8.7 8.5 8.4 8.4 8.6 8.7 9.0 9.1 9.1 9.1 8.5 8.4 8.3 8.3 8.2 8.0 8.0 7.9 8.1 8.3 8.2
7.6 7.9 7.8 8.0 8.0 7.7 7.8 7.8 8.0 8.6 8.3 8.4 8.6 8.7 8.5 8.5 8.6 8.8 8.6 8.7 8.5 8.7 8.7 8.5 8.5 8.5 8.6 8.8 8.9 8.6 8.8 9.1 9.3 9.2 9.1 8.7 8.3 8.4 8.1 8.1 8.2 8.4 8.3 8.3 8.4
7.6 7.5 7.4 7.2 7.4 7.2 7.4 7.4 7.7 7.7 7.9 7.9 7.9 8.0 8.4 8.4 8.5 8.4 8.2 8.3 8.5 8.4 8.6 8.4 8.7 8.7 8.8 8.6 8.6 8.6 8.6 9.0 9.1 9.0 9.0 8.5 8.1 8.2 8.1 8.1 8.1 8.2 8.1 8.3 8.0
7.3 7.3 7.2 7.1 7.2 7.4 7.4 7.3 7.5 7.5 7.5 7.7 7.6 7.5 7.6 7.9 8.2 8.5 8.5 8.3 8.4 8.4 8.6 8.4 8.6 8.8 9.3 9.2 8.9 8.6 8.2 8.6 8.7 8.9 8.7 8.4 8.5 8.5 8.3 8.4 8.1 8.0 7.8 7.6 7.5
Wind_Speed
15 15 15 14 14 14 14 14 14 14 14 15 15 15 16 16 15 1 5 6 7 19 12 8 6 7 6 3 2 1 4 3 2 4 3 10 8 7 7 10 3 3 6 9 13
16 16 15 15 14 14 15 14 14 14 14 15 15 15 15 14 2 5 9 15 27 20 10 10 4 2 4 3 2 4 4 2 1 2 8 14 7 9 8 10 3 9 11 14 15
18 16 16 15 16 15 14 14 14 13 14 15 16 15 13 10 1 6 13 22 28 19 10 7 3 3 5 3 2 3 2 3 3 2 11 7 9 5 16 2 5 20 17 17 15
17 17 17 16 16 16 14 14 13 13 14 14 15 15 14 2 4 2 12 25 28 12 10 9 3 3 3 3 2 3 5 3 5 1 9 9 7 9 4 3 14 16 17 19 16
18 18 17 17 16 16 15 14 13 13 13 14 13 12 3 1 7 3 13 20 17 5 10 8 3 3 0 3 4 3 6 6 13 11 7 7 7 7 4 12 14 16 16 17 15
19 18 18 17 16 16 15 13 12 13 13 12 10 7 2 2 2 13 10 14 11 7 8 7 6 6 1 4 3 3 9 21 12 9 6 5 8 7 5 14 16 17 16 14 16
20 18 18 17 16 15 16 14 13 12 13 10 6 3 1 9 2 10 10 7 6 11 8 13 3 3 1 2 5 13 10 17 13 14 4 11 3 5 15 15 16 16 16 12 15
19 18 17 18 16 15 15 15 14 13 11 7 3 2 6 4 10 8 3 2 3 7 4 6 1 4 2 5 4 7 8 8 13 13 6 5 3 6 13 17 14 12 13 13 12
19 18 17 17 16 15 15 17 16 11 5 3 3 1 6 3 4 6 6 6 7 5 6 5 5 6 3 5 3 5 7 4 8 4 4 2 4 8 11 14 13 12 11 12 12
19 18 16 15 14 15 18 19 2 4 2 4 4 2 3 6 4 7 5 3 4 5 5 6 5 5 4 4 5 6 8 10 12 4 3 7 5 11 12 12 13 11 9 11 12
18 16 14 12 11 12 9 3 3 1 3 7 5 2 2 4 5 6 6 5 2 2 4 1 3 5 11 10 8 6 15 14 9 9 1 3 13 19 12 13 8 8 8 9 12
18 15 12 10 8 6 3 2 4 4 5 10 5 5 5 1 3 5 7 6 5 5 2 4 6 10 5 6 7 5 6 6 4 7 3 1 4 3 8 9 8 7 8 8 6
19 14 10 7 6 3 3 5 1 5 2 6 5 5 5 9 8 8 13 7 4 5 6 6 9 5 3 4 3 4 7 9 6 8 3 5 1 3 2 4 9 7 7 9 7
19 13 8 4 3 0 4 4 6 5 5 5 3 5 5 6 2 4 8 7 2 5 4 5 7 5 4 6 8 5 12 11 11 10 3 4 2 2 4 8 4 5 1 1 4
17 11 6 4 3 2 5 8 1 4 3 1 3 1 3 7 3 4 5 5 7 5 6 7 6 7 5 5 4 7 12 11 5 6 6 6 4 5 5 6 7 3 4 5 4
17 9 2 2 1 7 10 6 4 5 2 1 4 5 4 3 0 1 4 4 3 4 2 10 3 4 8 5 8 9 8 9 6 4 2 3 4 4 3 6 6 7 6 7 6
17 8 5 2 3 5 5 4 4 3 1 3 4 3 4 4 2 4 6 6 4 2 2 6 6 5 4 3 4 5 5 3 3 1 4 2 4 6 5 10 9 12 10 11 7
23 6 8 5 2 6 4 5 1 1 5 4 4 3 4 3 4 1 4 1 2 4 2 0 8 2 2 7 8 0 7 5 3 3 3 1 2 5 13 7 9 8 8 12 9
4 1 1 4 13 2 5 3 4 2 4 5 5 4 3 1 2 3 6 5 6 9 7 3 5 6 3 2 7 3 3 4 8 3 4 3 5 8 11 12 13 7 8 17 3
1 1 2 4 11 5 4 4 4 4 3 5 4 3 4 4 5 5 4 4 5 12 2 2 3 2 5 2 5 3 7 3 3 5 3 4 5 5 7 1 6 12 8 2 2
2 4 3 6 2 5 1 5 6 3 2 4 4 2 5 2 5 6 6 4 4 3 6 4 4 7 2 2 3 4 1 7 6 4 5 4 5 7 12 6 1 9 4 5 6
2 3 2 2 4 1 1 4 6 6 5 6 4 1 1 2 3 3 4 4 1 5 4 3 5 2 4 1 2 3 4 5 5 3 3 4 5 4 8 9 8 12 5 3 5
3 1 3 4 4 6 7 5 5 9 8 5 8 6 6 6 5 6 6 7 9 3 3 3 4 3 9 7 6 5 4 6 6 4 3 5 5 3 6 8 6 7 9 8 10
2 3 4 4 1 3 4 6 4 4 6 6 5 6 6 9 7 5 8 6 7 5 6 8 4 5 5 7 3 2 4 3 5 4 6 5 3 4 7 8 10 9 7 5 7
4 1 2 4 5 6 2 3 6 7 4 6 7 6 3 6 6 7 4 7 5 9 6 5 2 1 4 6 3 2 3 4 5 5 5 8 9 8 7 9 7 2 2 5 6
3 4 5 3 4 6 7 7 8 6 7 5 7 2 5 3 3 3 3 2 2 6 5 4 0 2 5 7 7 6 6 7 6 5 9 8 3 5 5 2 4 3 2 4 5
3 2 3 5 6 3 4 3 5 4 3 3 4 4 3 4 5 7 6 5 5 1 2 3 3 3 5 6 4 6 7 2 3 4 13 10 8 8 5 7 6 6 4 1 4
Wind_Direction
332 330 330 331 331 332 334 337 336 335 333 330 332 329 325 328 319 169 230 202 161 155 129 154 172 126 128 73 60 181 61 53 48 143 163 145 136 183 98 134 131 132 124 151 157
329 328 326 325 326 327 329 331 332 332 329 327 326 325 325 331 295 246 258 136 140 154 149 164 196 107 113 111 136 62 62 249 310 34 144 145 159 137 126 162 65 102 102 136 152
326 326 323 322 322 324 326 326 329 328 326 323 323 323 322 321 283 236 208 145 154 166 155 155 137 33 35 22 113 137 143 324 342 231 140 141 134 117 141 207 193 151 143 144 157
324 322 320 319 318 319 322 322 324 323 320 319 320 321 319 212 170 165 171 144 159 181 176 144 194 55 72 17 352 17 239 235 302 56 128 156 151 138 196 228 149 146 145 152 168
324 320 317 315 315 314 315 316 316 316 313 313 318 321 317 278 252 154 154 136 148 213 168 168 162 123 35 208 121 315 334 355 336 295 168 159 166 148 218 128 138 141 158 167 174
325 319 317 314 314 311 312 312 311 307 305 307 310 317 267 234 116 148 131 141 169 168 185 183 201 195 286 182 148 50 360 355 326 302 234 165 152 131 140 142 149 155 167 174 183
325 319 316 314 314 312 309 307 303 298 299 297 290 270 34 230 119 147 138 170 169 183 178 217 204 11 334 58 59 49 23 20 355 353 96 107 91 148 151 158 162 173 177 176 189
323 320 316 314 313 310 306 302 297 294 290 269 220 264 235 306 129 131 168 162 179 226 246 35 70 266 259 129 91 80 54 350 319 320 331 66 228 152 158 162 177 186 187 184 195
323 322 317 315 312 310 306 297 294 285 232 161 124 206 269 104 160 196 167 195 143 216 275 260 145 215 122 123 79 200 151 118 288 209 259 130 139 180 165 175 182 188 197 201 202
325 323 318 314 313 313 308 294 202 107 153 198 255 27 258 226 202 166 191 241 164 148 244 174 181 156 14 97 231 184 117 139 242 231 210 161 151 152 175 189 190 193 205 203 207
327 325 320 315 314 324 343 106 56 63 213 195 189 243 319 286 119 196 162 135 315 151 220 203 131 205 223 200 215 190 145 168 227 232 266 264 161 170 160 171 178 200 199 211 217
334 329 323 316 311 319 307 179 197 190 302 224 229 268 255 275 189 236 111 154 180 190 231 11 251 236 230 211 217 212 157 193 179 162 124 51 265 230 174 168 167 185 216 204 203
335 330 323 311 303 283 217 230 343 16 120 293 186 189 210 146 206 222 146 175 216 163 230 181 246 341 185 189 217 204 192 185 158 147 128 124 255 4 328 195 188 189 199 229 192
335 329 315 296 300 202 264 234 266 179 60 277 229 269 156 161 227 192 172 141 248 217 207 238 278 230 297 177 165 284 187 164 146 138 190 68 182 27 300 303 74 38 2 90 233
326 316 308 224 299 174 271 312 118 60 66 149 194 33 101 136 158 244 170 64 186 221 110 247 266 341 324 241 183 243 143 142 136 78 66 336 72 308 357 299 264 261 273 294 288
326 316 267 182 205 239 296 298 58 42 9 65 137 164 114 15 157 79 125 66 149 165 315 255 260 244 227 277 168 113 77 45 52 83 34 284 102 297 243 247 285 269 241 240 243
324 280 197 277 228 322 309 42 36 130 2 187 152 106 152 210 304 162 176 173 173 88 327 321 279 278 170 87 60 93 106 40 19 62 217 233 71 234 247 246 247 258 236 236 188
333 179 224 241 359 345 46 51 300 198 228 53 102 84 138 140 260 25 85 172 262 73 53 65 329 249 94 181 185 264 132 152 215 145 240 24 130 249 229 250 233 230 262 250 231
346 108 245 259 211 33 67 63 234 225 280 105 52 71 339 280 122 145 159 207 219 166 180 152 279 303 243 233 121 182 74 163 106 6 72 309 284 292 234 240 211 244 196 240 80
348 41 285 156 163 75 76 255 257 223 28 63 106 188 202 255 137 137 176 224 213 193 128 232 309 279 316 22 42 103 156 75 17 130 91 322 290 247 297 308 234 188 194 179 7
43 51 301 202 92 50 110 244 282 297 183 80 148 157 217 233 167 156 186 295 216 98 145 139 155 291 22 20 222 26 33 57 111 101 142 159 267 228 254 271 168 144 156 175 206
36 50 351 355 32 45 213 215 329 335 9 62 94 134 336 30 74 132 152 233 297 145 158 224 128 263 246 302 330 211 138 134 123 196 87 131 257 279 251 291 304 312 321 226 270
64 286 0 58 41 343 319 340 54 27 19 37 9 39 28 27 71 43 12 3 20 87 150 207 30 18 350 3 8 14 11 104 110 95 190 128 248 353 321 304 300 315 310 324 333
64 35 341 42 130 336 305 333 28 6 77 61 16 54 43 27 5 36 5 347 350 47 52 75 86 137 167 232 202 324 314 150 120 112 167 202 183 284 285 296 301 288 299 345 349
22 40 194 338 344 333 334 1 14 9 28 43 21 41 60 32 3 19 343 338 357 356 33 86 72 178 238 253 210 328 301 271 120 138 144 193 158 220 222 237 265 289 10 353 20
64 30 355 299 310 355 5 350 17 346 20 359 103 43 60 84 144 300 21 324 287 344 37 8 142 325 336 0 25 57 30 52 52 111 74 109 88 167 225 58 111 147 17 349 22
333 349 102 299 344 52 321 333 11 342 323 32 330 121 131 177 207 218 206 228 225 312 1 65 101 53 296 350 6 18 330 343 81 68 148 155 206 156 154 161 167 174 200 255 349